FENGYUN 1C DEB, 32101

Orbit data source: Space-Track

FENGYUN 1C DEB, 32101 is space debris in SSO originally from a launch on Mon, 10 May 1999 UTC launched from the Taiyaun Space Center, China (TSC). Fengyun 1C debris stems from the Chinese weather satellite Fengyun-1C, which was intentionally destroyed by a Chinese anti-satellite missile in 2007. This event dramatically increased the amount of space debris, with thousands of trackable fragments posing hazards to satellites and human spaceflight. The Fengyun 1C debris cloud has become a focal point in discussions about space sustainability and the need for international regulations to prevent the creation of new debris.

Loading next visibility...
Identifier
32101, 1999-025CQT
Orbit
SSO
Country
Flag of CNCN / PRC
Related business
Manufacturer
Unknown
Mission
Spacecraft
Bus & Motor
Unknown
Mass
Unknown
Launch date (UTC)
1999-05-10 (26 years ago)
Launch vehicle
Unknown
Launch site
Taiyaun Space Center, China (TSC)
Object type
Payload
Rocket body
Debris
Shape & HBR
Unknown shape, 0.1 m
Radar Cross Section
Small (<0.1 m²)

Expand to show TLE details & history
Last TLE update: 14 hours ago

TLE from 14 hours ago
0 FENGYUN 1C DEB
1 32101U 99025CQT 25304.46678318  .00004559  00000-0  28586-2 0  9993
2 32101  99.0308 203.9504 0124956 355.5351   4.4689 14.01228979925904
Epoch: 2025-10-31T11:12Z
TLE epoch observation values (Epoch: 2025-10-31T11:12:10.066Z)
Latitude
-0.00009°
Longitude
-4.10233°
Altitude
801.873 km
Speed
7.499 km/s
True Right ascension
13h 35m 48s
True Declination
0° 00' 00"
Sunlit
Object was in daylight at epoch
Visualization orbit readout
Latitude
Unknown
Longitude
Unknown
Altitude
Unknown
Speed
Unknown
Apparent Right ascension
Unknown
Apparent Declination
Unknown
Sunlit
N/A
Visualization observer readout
Local Sidereal Time
20:58:04
Azimuth
Unknown
Elevation
Unknown
Doppler factor
Unknown
Orbital elements
Apogee altitude
977.52 km
Perigee altitude
795.962 km
Semi-major axis
7,264.878 km
Eccentricity
0.0125
Inclination
99.0308°
RAAN
203.9504°
Arg. of periapsis
355.5351°
True anomaly
4.58223°
Mean anomaly
4.4689°
Eccentric anomaly
4.52539°
Mean motion
3.5051 °/min
Orbital period
102.71 mins
BSTAR
0.0028586
Loading maneuver chart data...
Computing Atmospheric mass density...

Documentation

Showing up to 5 results
|